Regional Weather Roundup
Issued by NWS

Home | Current Version | Previous Version | Text Only | Print | Product List | Glossary Off
Versions: 1 2 3 4 5 6 7 8 9 10 11 12 13 14 15 16 17 18 19 20 21 22 23 24 25 26 27 28 29 30 31 32 33 34 35 36 37 38 39 40 41 42 43 44 45 46 47 48 49 50

000
ASUS43 KMPX 280801
RWRMN
WEATHER ROUNDUP FOR MINNESOTA
NATIONAL WEATHER SERVICE TWIN CITIES/CHANHASSEN MN
200 AM CST TUE FEB 28 2017


NOTE: "FAIR" INDICATES FEW OR NO CLOUDS BELOW 12,000 FEET WITH NO
SIGNIFICANT WEATHER AND/OR OBSTRUCTIONS TO VISIBILITY. N/A MEANS
CURRENT SKY AND/OR WEATHER CONDITIONS ARE NOT AVAILABLE.

MNZ060>063-068>070-280900-
   Twin Cities Metro

CITY           SKY/WX    TMP DP  RH WIND       PRES   REMARKS
TWIN CITIES    CLOUDY    37  28  70 E7        29.76F
ST PAUL        CLOUDY    36  30  79 SE5       29.78F
CRYSTAL        CLOUDY    37  27  67 E5        29.75F
BLAINE         CLOUDY    39  30  70 E3        29.76F
LAKEVILLE        N/A     34  30  86 E3        29.76F
EDEN PRAIRIE   CLOUDY    39  29  67 E6        29.75F
SOUTH ST PAUL  CLOUDY    38  30  73 SE3       29.77F
LAKE ELMO      CLOUDY    39  32  75 SE3       29.79F
$$
MNZ001>005-007-008-013>017-022>024-027-028-280900-
   Northwest Minnesota

CITY           SKY/WX    TMP DP  RH WIND       PRES   REMARKS
BEMIDJI        CLOUDY    24  15  70 N9        29.82S WCI  14
HALLOCK        PTCLDY    10   3  72 N7        29.96S WCI   0
ROSEAU         CLOUDY    14   9  79 NE7       29.94R WCI   4
WARROAD        FLURRIES  14  10  85 NE6       29.94S WCI   5
THIEF RVR FALL CLOUDY    19  15  84 N12       29.90R WCI   7
CROOKSTON      CLOUDY    19  18  93 NE9       29.92F WCI   9
FOSSTON        CLOUDY    21  16  79 NE10      29.85S WCI  10
DETROIT LAKES  CLOUDY    28  21  74 NE6       29.81S WCI  22
MOORHEAD       CLOUDY    23  19  86 N15       29.86S WCI  10
PARK RAPIDS    CLOUDY    28  16  60 N10       29.79R WCI  19
MAHNOMEN       FAIR      23  17  75 NE10      29.83S WCI  13
$$
MNZ006-009>011-018-025>026-280900-
   North Central Minnesota

CITY           SKY/WX    TMP DP  RH WIND       PRES   REMARKS
BAUDETTE       CLOUDY    18  14  84 N9        29.90S WCI   7
FLAG ISLAND    CLOUDY    12   7  79 N9        29.93F WCI   0
INTL FALLS     LGT SNOW  21  17  84 NE7       29.88F FOG     WCI  12
WASKISH        CLOUDY    23  18  80 NE6       29.87S WCI  16
BIG FORK       CLOUDY    27  19  74 N7        29.82F WCI  19
LONGVILLE      CLOUDY    28  25  86 CALM      29.78F
GRAND RAPIDS   CLOUDY    32  27  81 CALM      29.81S
CRANE LAKE     LGT SNOW  23  21  93 N3        29.89S
ORR            CLOUDY    25  19  80 CALM      29.82S
COOK           FLURRIES  25  23  93 E3        29.83S
WALKER         FAIR      27  19  72 N6        29.80S WCI  20
$$
MNZ012-019>021-037-280900-
   Northeast Minnesota

CITY           SKY/WX    TMP DP  RH WIND       PRES   REMARKS
DULUTH         FLURRIES  28  25  88 NE5       29.80F WCI  23
ELY            FLURRIES  25  21  86 CALM      29.83S
HIBBING        FLURRIES  28  24  85 SE6       29.79F WCI  22
EVELETH        LGT SNOW  30  24  78 CALM      29.82F
DULUTH HARBOR  CLOUDY    32  30  93 CALM      29.85F
TWO HARBORS    MOCLDY    28  25  86 N5        29.82F WCI  23
SILVER BAY     CLOUDY    27  25  93 N5        29.83F WCI  21
GRAND MARAIS     N/A     30  24  78 NE6       29.89F WCI  24
G MARAIS ARPRT CLOUDY    19  16  86 N3        29.84F FOG
$$
MNZ029>031-032-039>041-046>048-054>057-064-280900-
   West Central Minnesota

CITY           SKY/WX    TMP DP  RH WIND       PRES   REMARKS
FERGUS FALLS   CLOUDY    27  21  80 N9        29.82F WCI  17
WHEATON        FLURRIES  27  23  86 NW10G20   29.83R WCI  17
MORRIS         CLOUDY    34  30  86 N3        29.77S
ALEXANDRIA     CLOUDY    32  28  85 CALM      29.77R
ELBOW LAKE     CLOUDY    31  29  92 NE3       29.78S
WADENA         CLOUDY    30  27  86 N3        29.77S
GLENWOOD       CLOUDY    34  28  80 N3        29.77S
APPLETON       CLOUDY    34  30  86 N5        29.79R WCI  30
BENSON         CLOUDY    34  27  75 N8        29.79R WCI  27
ORTONVILLE     CLOUDY    30  27  86 NW7       29.80R WCI  23
MADISON        CLOUDY    34  34 100 N9        29.78R WCI  26
WILLMAR        MOCLDY    34  30  86 NE3       29.78S
$$
MNZ033>034-036-042>043-049>051-058-059-280900-
   Central Minnesota

CITY           SKY/WX    TMP DP  RH WIND       PRES   REMARKS
ST CLOUD       CLOUDY    33  28  81 CALM      29.78R
SAUK CENTRE    CLOUDY    32  28  86 CALM      29.77S
PAYNESVILLE    CLOUDY    33  30  90 CALM      29.77S
AITKIN         CLOUDY    36  23  60 CALM      29.78S
PINE RIVER     CLOUDY    32  25  74 CALM      29.81F
BRAINERD       CLOUDY    34  25  69 CALM      29.78F
STAPLES        CLOUDY    30  27  86 CALM      29.77S
LONG PRAIRIE   CLOUDY    32  28  86 CALM      29.78R
LITTLE FALLS   CLOUDY    34  27  75 CALM      29.78F
LITCHFIELD     CLOUDY    36  30  80 CALM      29.76S
BUFFALO        CLOUDY    34  29  82 N3        29.77F
MAPLE LAKE     CLOUDY    35  31  85 CALM      29.77S
HUTCHINSON     CLOUDY    36  32  87 E3        29.75F
$$
MNZ037-044-045-052-053-280900-
   East Central Minnesota

CITY           SKY/WX    TMP DP  RH WIND       PRES   REMARKS
PRINCETON      CLOUDY    34  27  75 CALM      29.78S
MORA           CLOUDY    32  25  74 CALM      29.79F
CAMBRIDGE      CLOUDY    36  25  64 CALM      29.76S
RUSH CITY      CLOUDY    32  26  77 CALM      29.79F
MOOSE LAKE     CLOUDY    28  27  93 CALM      29.80F
HINCKLEY       CLOUDY    32  27  80 NE5       29.80F WCI  27
CLOQUET        CLOUDY    28  25  86 E3        29.80F
MCGREGOR       CLOUDY    32  27  80 E5        29.80F WCI  27
$$
MNZ071>073-080-081-089-090-097-098-280900-
   Southwest Minnesota

CITY           SKY/WX    TMP DP  RH WIND       PRES   REMARKS
MONTEVIDEO     CLOUDY    34  30  86 CALM      29.79R
GRANITE FALLS  CLOUDY    35  31  88 N6        29.78R WCI  30
CANBY          CLOUDY    32  31  95 NW10      29.77F WCI  24
MARSHALL       CLOUDY    32  30  92 N9        29.74F WCI  24
REDWOOD FALLS  CLOUDY    35  29  78 CALM      29.74S
OLIVIA         PTCLDY    34  32  93 NW3       29.75S
PIPESTONE      CLOUDY    37  28  70 SE5       29.68F
WINDOM         CLOUDY    36  30  80 CALM      29.70F
WORTHINGTON    PTCLDY    34  30  85 E3        29.70F
JACKSON        CLOUDY    36  32  87 SE3       29.71F
TRACY          CLOUDY    31  30  96 NW7       29.72F FOG     WCI  25
SLAYTON        CLOUDY    32  31  96 CALM      29.71F
$$
MNZ065>067-074>077-082>085-091>093-280900-
   South Central Minnesota

CITY           SKY/WX    TMP DP  RH WIND       PRES   REMARKS
MANKATO          N/A     34  30  85 SE7       29.74F WCI  28
NEW ULM        PTCLDY    36  28  75 CALM      29.74F
ST JAMES       CLOUDY    34  30  86 CALM      29.74F
FAIRMONT       PTCLDY    35  31  85 SE6       29.72F WCI  30
GLENCOE        CLOUDY    36  33  90 CALM      29.75S
FARIBAULT      CLEAR     39  32  75 SE8       29.76S
OWATONNA       PTCLDY    39  30  70 SE10      29.75S
WASECA         MOCLDY    37  32  81 SE8       29.76R
ALBERT LEA     MOCLDY    39  34  81 SE6       29.74F
$$
MNZ078>079-086>088-094>096-280900-
   Southeast Minnesota

CITY           SKY/WX    TMP DP  RH WIND       PRES   REMARKS
ROCHESTER      CLEAR     37  33  85 SE13      29.76F
RED WING       CLOUDY    43  30  61 E6        29.77F
STANTON        CLEAR     41  32  70 SE8       29.74F
WINONA         MOCLDY    36  32  87 CALM      29.82F
AUSTIN         CLOUDY    37  34  87 SE8       29.75F
PRESTON        PTCLDY    39  35  85 SE9       29.78F
$$
ABBREVIATIONS USED IN REMARKS
   TC - TEMPERATURES IN CELSIUS
  WCI - WIND CHILL INDEX
   HX - HEAT INDEX
  VSB - VISIBILITY
$$




USA.gov is the U.S. government's official web portal to all federal, state and local government web resources and services.